When you browse on this site, cookies collect data to enhance your experience and personalize the content and advertising you see.
Visit our Privacy Policy to learn more. By continuing to use the site, you agree to this use of cookies and data.
  • In Österreich
  • Länderverzeichnis
  • Für 7 Tage
  • Wassertemperatur
  • Satellitenkarten
  • Wetterkarte
  • News
  • Widgets
  • user-avatar
    Anmelden

    Stündliche Wetter Zamoshe

    Heute, 25 Mai, Samstag

    Zeit Temperatur Niederschläge Wind Luftdruck Luftfeuchtigkeit
    00:00 +16°C° 0 mm 1 m/S 744 mmHg 92%
    01:00 +15°C° 0 mm 1 m/S 743 mmHg 93%
    02:00 +14°C° 0 mm 1 m/S 743 mmHg 94%
    03:00 +14°C° 0 mm 1 m/S 743 mmHg 94%
    04:00 +14°C° 0 mm 1 m/S 743 mmHg 95%
    05:00 +14°C° 0 mm 1 m/S 743 mmHg 95%
    06:00 +16°C° 0 mm 2 m/S 743 mmHg 90%
    07:00 +17°C° 0 mm 2 m/S 744 mmHg 85%
    08:00 +19°C° 0 mm 2 m/S 744 mmHg 79%
    09:00 +20°C° 0 mm 3 m/S 744 mmHg 72%
    10:00 +22°C° 0 mm 3 m/S 744 mmHg 65%
    11:00 +23°C° 0 mm 4 m/S 744 mmHg 58%
    12:00 +23°C° 0.3 mm 4 m/S 743 mmHg 58%
    13:00 +23°C° 0.3 mm 4 m/S 743 mmHg 58%
    14:00 +23°C° 0.3 mm 4 m/S 743 mmHg 58%
    15:00 +23°C° 0.1 mm 4 m/S 743 mmHg 57%
    16:00 +23°C° 0.1 mm 4 m/S 743 mmHg 56%
    17:00 +23°C° 0.1 mm 4 m/S 743 mmHg 55%
    18:00 +21°C° 0 mm 3 m/S 743 mmHg 61%
    19:00 +19°C° 0 mm 3 m/S 743 mmHg 67%
    20:00 +17°C° 0 mm 2 m/S 743 mmHg 73%
    21:00 +16°C° 0 mm 2 m/S 743 mmHg 75%
    22:00 +15°C° 0 mm 2 m/S 744 mmHg 77%
    23:00 +14°C° 0 mm 2 m/S 744 mmHg 79%

    Morgen, 26 Mai, Sonntag

    Zeit Temperatur Niederschläge Wind Luftdruck Luftfeuchtigkeit
    00:00 +14°C° 0 mm 2 m/S 744 mmHg 82%
    01:00 +13°C° 0 mm 2 m/S 744 mmHg 86%
    02:00 +13°C° 0 mm 2 m/S 745 mmHg 89%
    03:00 +13°C° 0 mm 2 m/S 745 mmHg 90%
    04:00 +12°C° 0 mm 2 m/S 745 mmHg 92%
    05:00 +12°C° 0 mm 2 m/S 745 mmHg 94%
    06:00 +14°C° 0 mm 2 m/S 745 mmHg 84%
    07:00 +14°C° 0 mm 3 m/S 745 mmHg 75%
    08:00 +16°C° 0 mm 3 m/S 746 mmHg 65%
    09:00 +17°C° 0 mm 3 m/S 746 mmHg 61%
    10:00 +18°C° 0 mm 4 m/S 746 mmHg 57%
    11:00 +19°C° 0 mm 4 m/S 746 mmHg 53%
    12:00 +20°C° 0 mm 4 m/S 746 mmHg 53%
    13:00 +20°C° 0 mm 5 m/S 745 mmHg 53%
    14:00 +21°C° 0 mm 5 m/S 745 mmHg 53%
    15:00 +20°C° 0 mm 5 m/S 745 mmHg 54%
    16:00 +20°C° 0 mm 5 m/S 745 mmHg 55%
    17:00 +20°C° 0 mm 5 m/S 745 mmHg 56%
    18:00 +19°C° 0 mm 4 m/S 745 mmHg 62%
    19:00 +18°C° 0 mm 3 m/S 745 mmHg 68%
    20:00 +16°C° 0 mm 2 m/S 745 mmHg 75%
    21:00 +15°C° 0 mm 2 m/S 746 mmHg 79%
    22:00 +14°C° 0 mm 2 m/S 746 mmHg 83%
    23:00 +13°C° 0 mm 2 m/S 746 mmHg 87%

    übermorgen, 27 Mai, Montag

    Zeit Temperatur Niederschläge Wind Luftdruck Luftfeuchtigkeit
    00:00 +13°C° 0 mm 2 m/S 746 mmHg 89%
    01:00 +12°C° 0 mm 2 m/S 746 mmHg 92%
    02:00 +12°C° 0 mm 2 m/S 746 mmHg 94%
    03:00 +12°C° 0 mm 2 m/S 746 mmHg 94%
    04:00 +12°C° 0 mm 2 m/S 746 mmHg 94%
    05:00 +12°C° 0 mm 2 m/S 747 mmHg 94%
    06:00 +15°C° 0 mm 2 m/S 747 mmHg 84%
    07:00 +17°C° 0 mm 3 m/S 747 mmHg 74%
    08:00 +19°C° 0 mm 3 m/S 747 mmHg 65%
    09:00 +21°C° 0 mm 4 m/S 747 mmHg 59%
    10:00 +22°C° 0 mm 4 m/S 747 mmHg 54%
    11:00 +25°C° 0 mm 5 m/S 747 mmHg 48%
    12:00 +25°C° 0 mm 5 m/S 747 mmHg 47%
    13:00 +26°C° 0 mm 5 m/S 746 mmHg 46%
    14:00 +27°C° 0 mm 5 m/S 746 mmHg 45%
    15:00 +27°C° 0 mm 4 m/S 746 mmHg 47%
    16:00 +27°C° 0 mm 4 m/S 746 mmHg 48%
    17:00 +27°C° 0 mm 4 m/S 746 mmHg 50%
    18:00 +25°C° 0.2 mm 3 m/S 746 mmHg 61%
    19:00 +21°C° 0.2 mm 3 m/S 746 mmHg 73%
    20:00 +19°C° 0.2 mm 2 m/S 746 mmHg 84%
    21:00 +19°C° 0.1 mm 2 m/S 746 mmHg 87%
    22:00 +18°C° 0.1 mm 2 m/S 746 mmHg 89%
    23:00 +18°C° 0.1 mm 2 m/S 746 mmHg 92%

    28 Mai, Dienstag

    Zeit Temperatur Niederschläge Wind Luftdruck Luftfeuchtigkeit
    00:00 +18°C° 0 mm 2 m/S 746 mmHg 92%
    01:00 +18°C° 0 mm 2 m/S 746 mmHg 92%
    02:00 +17°C° 0 mm 2 m/S 746 mmHg 92%
    03:00 +17°C° 0 mm 2 m/S 746 mmHg 92%
    04:00 +17°C° 0 mm 2 m/S 746 mmHg 92%
    05:00 +17°C° 0 mm 2 m/S 746 mmHg 92%
    06:00 +18°C° 0 mm 2 m/S 746 mmHg 87%
    07:00 +20°C° 0 mm 2 m/S 746 mmHg 82%
    08:00 +22°C° 0 mm 3 m/S 746 mmHg 77%
    09:00 +24°C° 0.4 mm 3 m/S 746 mmHg 72%
    10:00 +26°C° 0.4 mm 4 m/S 746 mmHg 67%
    11:00 +27°C° 0.4 mm 4 m/S 745 mmHg 63%
    12:00 +27°C° 0.9 mm 5 m/S 745 mmHg 65%
    13:00 +27°C° 0.9 mm 5 m/S 745 mmHg 68%
    14:00 +27°C° 0.9 mm 5 m/S 744 mmHg 71%
    15:00 +27°C° 0.4 mm 5 m/S 744 mmHg 67%
    16:00 +27°C° 0.4 mm 5 m/S 744 mmHg 64%
    17:00 +27°C° 0.4 mm 5 m/S 744 mmHg 61%
    18:00 +26°C° 0 mm 4 m/S 744 mmHg 65%
    19:00 +23°C° 0 mm 4 m/S 744 mmHg 69%
    20:00 +22°C° 0 mm 3 m/S 744 mmHg 73%
    21:00 +21°C° 0 mm 4 m/S 744 mmHg 74%
    22:00 +21°C° 0 mm 4 m/S 744 mmHg 74%
    23:00 +20°C° 0 mm 4 m/S 744 mmHg 75%

    29 Mai, Mittwoch

    Zeit Temperatur Niederschläge Wind Luftdruck Luftfeuchtigkeit
    00:00 +20°C° 0 mm 4 m/S 744 mmHg 75%
    01:00 +19°C° 0 mm 4 m/S 744 mmHg 76%
    02:00 +18°C° 0 mm 4 m/S 744 mmHg 76%
    03:00 +18°C° 0 mm 4 m/S 743 mmHg 75%
    04:00 +17°C° 0 mm 4 m/S 743 mmHg 74%
    05:00 +17°C° 0 mm 4 m/S 743 mmHg 74%
    06:00 +18°C° 0 mm 4 m/S 743 mmHg 70%
    07:00 +19°C° 0 mm 5 m/S 743 mmHg 67%
    08:00 +20°C° 0 mm 5 m/S 743 mmHg 64%
    09:00 +22°C° 0 mm 5 m/S 743 mmHg 62%
    10:00 +25°C° 0 mm 5 m/S 743 mmHg 60%
    11:00 +26°C° 0 mm 6 m/S 743 mmHg 57%
    12:00 +27°C° 0 mm 6 m/S 743 mmHg 55%
    13:00 +28°C° 0 mm 6 m/S 743 mmHg 52%
    14:00 +29°C° 0 mm 7 m/S 743 mmHg 50%
    15:00 +28°C° 1.3 mm 6 m/S 743 mmHg 60%
    16:00 +26°C° 1.3 mm 5 m/S 743 mmHg 69%
    17:00 +23°C° 1.3 mm 4 m/S 743 mmHg 79%
    18:00 +22°C° 0.6 mm 3 m/S 743 mmHg 83%
    19:00 +21°C° 0.6 mm 3 m/S 744 mmHg 86%
    20:00 +20°C° 0.6 mm 2 m/S 744 mmHg 90%
    21:00 +20°C° 0.3 mm 2 m/S 744 mmHg 92%
    22:00 +19°C° 0.3 mm 2 m/S 744 mmHg 94%
    23:00 +18°C° 0.3 mm 2 m/S 745 mmHg 95%

    30 Mai, Donnerstag

    Zeit Temperatur Niederschläge Wind Luftdruck Luftfeuchtigkeit
    00:00 +18°C° 0 mm 2 m/S 745 mmHg 96%
    01:00 +17°C° 0 mm 2 m/S 745 mmHg 97%
    02:00 +17°C° 0 mm 2 m/S 746 mmHg 98%
    03:00 +17°C° 0 mm 2 m/S 746 mmHg 97%
    04:00 +17°C° 0 mm 2 m/S 747 mmHg 96%
    05:00 +17°C° 0 mm 3 m/S 747 mmHg 96%
    06:00 +17°C° 0 mm 3 m/S 748 mmHg 95%
    07:00 +17°C° 0 mm 3 m/S 748 mmHg 94%
    08:00 +17°C° 0 mm 3 m/S 749 mmHg 93%
    09:00 +17°C° 0 mm 3 m/S 749 mmHg 91%
    10:00 +17°C° 0 mm 3 m/S 749 mmHg 88%
    11:00 +17°C° 0 mm 3 m/S 750 mmHg 86%
    12:00 +18°C° 0 mm 3 m/S 750 mmHg 80%
    13:00 +20°C° 0 mm 3 m/S 750 mmHg 74%
    14:00 +21°C° 0 mm 3 m/S 750 mmHg 69%
    15:00 +20°C° 0 mm 3 m/S 750 mmHg 70%
    16:00 +20°C° 0 mm 3 m/S 751 mmHg 71%
    17:00 +20°C° 0 mm 3 m/S 751 mmHg 72%
    18:00 +19°C° 0 mm 3 m/S 751 mmHg 77%
    19:00 +18°C° 0 mm 2 m/S 751 mmHg 82%
    20:00 +17°C° 0 mm 2 m/S 751 mmHg 87%
    21:00 +16°C° 0 mm 2 m/S 751 mmHg 90%
    22:00 +15°C° 0 mm 2 m/S 751 mmHg 92%
    23:00 +15°C° 0 mm 2 m/S 751 mmHg 94%
    Mehr zeigen